Year,Month,Day,Hour,Minute,Value (Times are PST for temperature in C)
2009,08,11,00,00,14.40
2009,08,11,00,01,14.40
2009,08,11,00,02,14.40
2009,08,11,00,03,14.40
2009,08,11,00,04,14.40
2009,08,11,00,05,14.40
2009,08,11,00,06,14.40
2009,08,11,00,07,14.40
2009,08,11,00,08,14.40
2009,08,11,00,09,14.40
2009,08,11,00,10,14.40
2009,08,11,00,11,14.40
2009,08,11,00,12,14.40
2009,08,11,00,13,14.40
2009,08,11,00,14,14.40
2009,08,11,00,15,14.40
2009,08,11,00,16,14.40
2009,08,11,00,17,14.40
2009,08,11,00,18,14.40
2009,08,11,00,19,14.40
2009,08,11,00,20,14.40
2009,08,11,00,21,14.40
2009,08,11,00,22,14.40
2009,08,11,00,23,14.30
2009,08,11,00,24,14.30
2009,08,11,00,25,14.40
2009,08,11,00,26,14.40
2009,08,11,00,27,14.40
2009,08,11,00,28,14.40
2009,08,11,00,29,14.40
2009,08,11,00,30,14.40
2009,08,11,00,31,14.30
2009,08,11,00,32,14.40
2009,08,11,00,33,14.40
2009,08,11,00,34,14.40
2009,08,11,00,35,14.40
2009,08,11,00,36,14.40
2009,08,11,00,37,14.40
2009,08,11,00,38,14.30
2009,08,11,00,39,14.30
2009,08,11,00,40,14.30
2009,08,11,00,41,14.30
2009,08,11,00,42,14.30
2009,08,11,00,43,14.30
2009,08,11,00,44,14.30
2009,08,11,00,45,14.30
2009,08,11,00,46,14.30
2009,08,11,00,47,14.20
2009,08,11,00,48,14.20
2009,08,11,00,49,14.20
2009,08,11,00,50,14.20
2009,08,11,00,51,14.20
2009,08,11,00,52,14.10
2009,08,11,00,53,14.10
2009,08,11,00,54,14.10
2009,08,11,00,55,14.00
2009,08,11,00,56,14.00
2009,08,11,00,57,13.90
2009,08,11,00,58,13.90
2009,08,11,00,59,13.90
2009,08,11,01,00,13.80
2009,08,11,01,01,13.80
2009,08,11,01,02,13.80
2009,08,11,01,03,13.80
2009,08,11,01,04,13.90
2009,08,11,01,05,13.90
2009,08,11,01,06,13.90
2009,08,11,01,07,13.90
2009,08,11,01,08,13.90
2009,08,11,01,09,13.90
2009,08,11,01,10,13.90
2009,08,11,01,11,13.90
2009,08,11,01,12,13.90
2009,08,11,01,13,13.80
2009,08,11,01,14,13.80
2009,08,11,01,15,13.80
2009,08,11,01,16,13.80
2009,08,11,01,17,13.80
2009,08,11,01,18,13.80
2009,08,11,01,19,13.80
2009,08,11,01,20,13.80
2009,08,11,01,21,13.80
2009,08,11,01,22,13.80
2009,08,11,01,23,13.90
2009,08,11,01,24,13.90
2009,08,11,01,25,13.90
2009,08,11,01,26,13.90
2009,08,11,01,27,13.80
2009,08,11,01,28,13.80
2009,08,11,01,29,13.80
2009,08,11,01,30,13.80
2009,08,11,01,31,13.80
2009,08,11,01,32,13.80
2009,08,11,01,33,13.80
2009,08,11,01,34,13.80
2009,08,11,01,35,13.80
2009,08,11,01,36,13.80
2009,08,11,01,37,13.80
2009,08,11,01,38,13.80
2009,08,11,01,39,13.80
2009,08,11,01,40,13.80
2009,08,11,01,41,13.80
2009,08,11,01,42,13.80
2009,08,11,01,43,13.70
2009,08,11,01,44,13.70
2009,08,11,01,45,13.70
2009,08,11,01,46,13.60
2009,08,11,01,47,13.60
2009,08,11,01,48,13.60
2009,08,11,01,49,13.60
2009,08,11,01,50,13.60
2009,08,11,01,51,13.50
2009,08,11,01,52,13.50
2009,08,11,01,53,13.40
2009,08,11,01,54,13.40
2009,08,11,01,55,13.40
2009,08,11,01,56,13.40
2009,08,11,01,57,13.30
2009,08,11,01,58,13.30
2009,08,11,01,59,13.30
2009,08,11,02,00,13.30
2009,08,11,02,01,13.30
2009,08,11,02,02,13.30
2009,08,11,02,03,13.30
2009,08,11,02,04,13.30
2009,08,11,02,05,13.30
2009,08,11,02,06,13.30
2009,08,11,02,07,13.30
2009,08,11,02,08,13.30
2009,08,11,02,09,13.20
2009,08,11,02,10,13.20
2009,08,11,02,11,13.20
2009,08,11,02,12,13.20
2009,08,11,02,13,13.20
2009,08,11,02,14,13.20
2009,08,11,02,15,13.20
2009,08,11,02,16,13.20
2009,08,11,02,17,13.10
2009,08,11,02,18,13.10
2009,08,11,02,19,13.00
2009,08,11,02,20,12.90
2009,08,11,02,21,12.90
2009,08,11,02,22,12.90
2009,08,11,02,23,12.90
2009,08,11,02,24,12.90
2009,08,11,02,25,12.90
2009,08,11,02,26,12.90
2009,08,11,02,27,12.90
2009,08,11,02,28,12.90
2009,08,11,02,29,12.90
2009,08,11,02,30,12.90
2009,08,11,02,31,12.90
2009,08,11,02,32,12.90
2009,08,11,02,33,12.90
2009,08,11,02,34,12.90
2009,08,11,02,35,12.90
2009,08,11,02,36,12.90
2009,08,11,02,37,12.90
2009,08,11,02,38,12.80
2009,08,11,02,39,12.80
2009,08,11,02,40,12.80
2009,08,11,02,41,12.80
2009,08,11,02,42,12.90
2009,08,11,02,43,12.90
2009,08,11,02,44,12.90
2009,08,11,02,45,13.00
2009,08,11,02,46,13.10
2009,08,11,02,47,13.10
2009,08,11,02,48,13.10
2009,08,11,02,49,13.10
2009,08,11,02,50,13.00
2009,08,11,02,51,13.00
2009,08,11,02,52,12.90
2009,08,11,02,53,12.90
2009,08,11,02,54,12.80
2009,08,11,02,55,12.80
2009,08,11,02,56,12.80
2009,08,11,02,57,12.80
2009,08,11,02,58,12.80
2009,08,11,02,59,12.70
2009,08,11,03,00,12.70
2009,08,11,03,01,12.70
2009,08,11,03,02,12.70
2009,08,11,03,03,12.70
2009,08,11,03,04,12.70
2009,08,11,03,05,12.70
2009,08,11,03,06,12.70
2009,08,11,03,07,12.70
2009,08,11,03,08,12.70
2009,08,11,03,09,12.70
2009,08,11,03,10,12.70
2009,08,11,03,11,12.70
2009,08,11,03,12,12.70
2009,08,11,03,13,12.70
2009,08,11,03,14,12.70
2009,08,11,03,15,12.70
2009,08,11,03,16,12.70
2009,08,11,03,17,12.70
2009,08,11,03,18,12.70
2009,08,11,03,19,12.70
2009,08,11,03,20,12.70
2009,08,11,03,21,12.70
2009,08,11,03,22,12.70
2009,08,11,03,23,12.70
2009,08,11,03,24,12.70
2009,08,11,03,25,12.70
2009,08,11,03,26,12.60
2009,08,11,03,27,12.60
2009,08,11,03,28,12.60
2009,08,11,03,29,12.60
2009,08,11,03,30,12.60
2009,08,11,03,31,12.50
2009,08,11,03,32,12.50
2009,08,11,03,33,12.50
2009,08,11,03,34,12.50
2009,08,11,03,35,12.50
2009,08,11,03,36,12.40
2009,08,11,03,37,12.40
2009,08,11,03,38,12.40
2009,08,11,03,39,12.40
2009,08,11,03,40,12.40
2009,08,11,03,41,12.30
2009,08,11,03,42,12.30
2009,08,11,03,43,12.30
2009,08,11,03,44,12.30
2009,08,11,03,45,12.30
2009,08,11,03,46,12.30
2009,08,11,03,47,12.30
2009,08,11,03,48,12.30
2009,08,11,03,49,12.30
2009,08,11,03,50,12.20
2009,08,11,03,51,12.20
2009,08,11,03,52,12.20
2009,08,11,03,53,12.20
2009,08,11,03,54,12.20
2009,08,11,03,55,12.20
2009,08,11,03,56,12.20
2009,08,11,03,57,12.20
2009,08,11,03,58,12.20
2009,08,11,03,59,12.20
2009,08,11,04,00,12.20
2009,08,11,04,01,12.20
2009,08,11,04,02,12.20
2009,08,11,04,03,12.20
2009,08,11,04,10,12.20
2009,08,11,04,11,12.10
2009,08,11,04,12,12.10
2009,08,11,04,13,12.10
2009,08,11,04,14,12.10
2009,08,11,04,15,12.10
2009,08,11,04,16,12.10
2009,08,11,04,17,12.10
2009,08,11,04,18,12.10
2009,08,11,04,19,12.00
2009,08,11,04,20,12.00
2009,08,11,04,21,12.00
2009,08,11,04,22,12.00
2009,08,11,04,23,11.90
2009,08,11,04,24,11.90
2009,08,11,04,25,11.90
2009,08,11,04,26,11.90
2009,08,11,04,27,11.90
2009,08,11,04,28,11.80
2009,08,11,04,29,11.80
2009,08,11,04,30,11.80
2009,08,11,04,31,11.80
2009,08,11,04,32,11.80
2009,08,11,04,33,11.70
2009,08,11,04,34,11.70
2009,08,11,04,35,11.70
2009,08,11,04,36,11.70
2009,08,11,04,37,11.60
2009,08,11,04,38,11.60
2009,08,11,04,39,11.60
2009,08,11,04,40,11.60
2009,08,11,04,41,11.50
2009,08,11,04,42,11.50
2009,08,11,04,43,11.50
2009,08,11,04,44,11.40
2009,08,11,04,45,11.40
2009,08,11,04,46,11.40
2009,08,11,04,47,11.30
2009,08,11,04,48,11.30
2009,08,11,04,49,11.30
2009,08,11,04,50,11.30
2009,08,11,04,51,11.20
2009,08,11,04,52,11.20
2009,08,11,04,53,11.20
2009,08,11,04,54,11.20
2009,08,11,04,55,11.20
2009,08,11,04,56,11.20
2009,08,11,04,57,11.20
2009,08,11,04,58,11.20
2009,08,11,04,59,11.20
2009,08,11,05,00,11.20
2009,08,11,05,01,11.20
2009,08,11,05,02,11.20
2009,08,11,05,03,11.20
2009,08,11,05,04,11.20
2009,08,11,05,05,11.20
2009,08,11,05,06,11.20
2009,08,11,05,07,11.20
2009,08,11,05,08,11.20
2009,08,11,05,09,11.20
2009,08,11,05,10,11.10
2009,08,11,05,11,11.10
2009,08,11,05,12,11.10
2009,08,11,05,13,11.10
2009,08,11,05,14,11.10
2009,08,11,05,15,11.10
2009,08,11,05,16,11.10
2009,08,11,05,17,11.10
2009,08,11,05,18,11.00
2009,08,11,05,19,11.00
2009,08,11,05,20,11.00
2009,08,11,05,21,10.90
2009,08,11,05,22,10.90
2009,08,11,05,23,10.90
2009,08,11,05,24,10.90
2009,08,11,05,25,10.90
2009,08,11,05,26,10.90
2009,08,11,05,27,10.90
2009,08,11,05,28,10.90
2009,08,11,05,29,10.80
2009,08,11,05,30,10.80
2009,08,11,05,31,10.80
2009,08,11,05,32,10.70
2009,08,11,05,33,10.70
2009,08,11,05,34,10.70
2009,08,11,05,35,10.60
2009,08,11,05,36,10.60
2009,08,11,05,37,10.60
2009,08,11,05,38,10.60
2009,08,11,05,39,10.60
2009,08,11,05,40,10.70
2009,08,11,05,41,10.70
2009,08,11,05,42,10.70
2009,08,11,05,43,10.70
2009,08,11,05,44,10.70
2009,08,11,05,45,10.70
2009,08,11,05,46,10.70
2009,08,11,05,47,10.70
2009,08,11,05,48,10.70
2009,08,11,05,49,10.70
2009,08,11,05,50,10.70
2009,08,11,05,51,10.80
2009,08,11,05,52,10.80
2009,08,11,05,53,10.80
2009,08,11,05,54,10.80
2009,08,11,05,55,10.80
2009,08,11,05,56,10.80
2009,08,11,05,57,10.80
2009,08,11,05,58,10.80
2009,08,11,05,59,10.80
2009,08,11,06,00,10.70
2009,08,11,06,01,10.70
2009,08,11,06,02,10.70
2009,08,11,06,03,10.70
2009,08,11,06,04,10.70
2009,08,11,06,05,10.70
2009,08,11,06,06,10.70
2009,08,11,06,07,10.70
2009,08,11,06,08,10.70
2009,08,11,06,09,10.70
2009,08,11,06,10,10.70
2009,08,11,06,11,10.70
2009,08,11,06,12,10.70
2009,08,11,06,13,10.70
2009,08,11,06,14,10.70
2009,08,11,06,15,10.70
2009,08,11,06,16,10.70
2009,08,11,06,17,10.70
2009,08,11,06,18,10.70
2009,08,11,06,19,10.70
2009,08,11,06,20,10.70
2009,08,11,06,21,10.70
2009,08,11,06,22,10.70
2009,08,11,06,23,10.70
2009,08,11,06,24,10.70
2009,08,11,06,25,10.70
2009,08,11,06,26,10.70
2009,08,11,06,27,10.70
2009,08,11,06,28,10.70
2009,08,11,06,29,10.70
2009,08,11,06,30,10.80
2009,08,11,06,31,10.80
2009,08,11,06,32,10.80
2009,08,11,06,33,10.80
2009,08,11,06,34,10.80
2009,08,11,06,35,10.80
2009,08,11,06,36,10.80
2009,08,11,06,37,10.80
2009,08,11,06,38,10.80
2009,08,11,06,39,10.80
2009,08,11,06,40,10.90
2009,08,11,06,41,10.90
2009,08,11,06,42,10.90
2009,08,11,06,43,10.90
2009,08,11,06,44,10.90
2009,08,11,06,45,10.90
2009,08,11,06,46,10.90
2009,08,11,06,47,10.90
2009,08,11,06,48,10.90
2009,08,11,06,49,10.90
2009,08,11,06,50,10.90
2009,08,11,06,51,11.00
2009,08,11,06,52,11.00
2009,08,11,06,53,11.00
2009,08,11,06,54,11.00
2009,08,11,06,55,11.00
2009,08,11,06,56,11.10
2009,08,11,06,57,11.10
2009,08,11,06,58,11.10
2009,08,11,06,59,11.10
2009,08,11,07,00,11.10
2009,08,11,07,01,11.20
2009,08,11,07,02,11.20
2009,08,11,07,03,11.20
2009,08,11,07,04,11.20
2009,08,11,07,05,11.20
2009,08,11,07,06,11.30
2009,08,11,07,07,11.30
2009,08,11,07,08,11.40
2009,08,11,07,09,11.40
2009,08,11,07,10,11.40
2009,08,11,07,11,11.40
2009,08,11,07,12,11.40
2009,08,11,07,13,11.30
2009,08,11,07,14,11.30
2009,08,11,07,15,11.40
2009,08,11,07,16,11.40
2009,08,11,07,17,11.40
2009,08,11,07,18,11.40
2009,08,11,07,19,11.50
2009,08,11,07,20,11.50
2009,08,11,07,21,11.50
2009,08,11,07,22,11.50
2009,08,11,07,23,11.60
2009,08,11,07,24,11.60
2009,08,11,07,25,11.60
2009,08,11,07,26,11.60
2009,08,11,07,27,11.60
2009,08,11,07,28,11.70
2009,08,11,07,29,11.70
2009,08,11,07,30,11.70
2009,08,11,07,31,11.70
2009,08,11,07,32,11.70
2009,08,11,07,33,11.70
2009,08,11,07,34,11.80
2009,08,11,07,35,11.80
2009,08,11,07,36,11.80
2009,08,11,07,37,11.90
2009,08,11,07,38,11.90
2009,08,11,07,39,11.90
2009,08,11,07,40,12.00
2009,08,11,07,41,12.00
2009,08,11,07,42,12.10
2009,08,11,07,43,12.10
2009,08,11,07,44,12.20
2009,08,11,07,45,12.20
2009,08,11,07,46,12.20
2009,08,11,07,47,12.20
2009,08,11,07,48,12.30
2009,08,11,07,49,12.30
2009,08,11,07,50,12.30
2009,08,11,07,51,12.40
2009,08,11,07,52,12.40
2009,08,11,07,53,12.50
2009,08,11,07,54,12.50
2009,08,11,07,55,12.60
2009,08,11,07,56,12.70
2009,08,11,07,57,12.70
2009,08,11,07,58,12.80
2009,08,11,07,59,12.80
2009,08,11,08,00,12.90
2009,08,11,08,01,12.90
2009,08,11,08,02,12.90
2009,08,11,08,03,12.90
2009,08,11,08,04,12.90
2009,08,11,08,05,12.90
2009,08,11,08,06,13.00
2009,08,11,08,07,13.00
2009,08,11,08,08,13.10
2009,08,11,08,09,13.20
2009,08,11,08,10,13.20
2009,08,11,08,11,13.20
2009,08,11,08,12,13.30
2009,08,11,08,13,13.30
2009,08,11,08,14,13.40
2009,08,11,08,15,13.50
2009,08,11,08,16,13.60
2009,08,11,08,17,13.70
2009,08,11,08,18,13.90
2009,08,11,08,19,14.00
2009,08,11,08,20,14.10
2009,08,11,08,21,14.20
2009,08,11,08,22,14.30
2009,08,11,08,23,14.40
2009,08,11,08,24,14.60
2009,08,11,08,25,14.70
2009,08,11,08,26,14.80
2009,08,11,08,27,15.00
2009,08,11,08,28,15.00
2009,08,11,08,29,15.00
2009,08,11,08,30,15.20
2009,08,11,08,31,15.30
2009,08,11,08,32,15.40
2009,08,11,08,33,15.40
2009,08,11,08,34,15.50
2009,08,11,08,35,15.50
2009,08,11,08,36,15.50
2009,08,11,08,37,15.60
2009,08,11,08,38,15.60
2009,08,11,08,39,15.50
2009,08,11,08,40,15.60
2009,08,11,08,41,15.60
2009,08,11,08,42,15.60
2009,08,11,08,43,15.60
2009,08,11,08,44,15.60
2009,08,11,08,45,15.60
2009,08,11,08,46,15.50
2009,08,11,08,47,15.40
2009,08,11,08,48,15.40
2009,08,11,08,49,15.30
2009,08,11,08,50,15.30
2009,08,11,08,51,15.20
2009,08,11,08,52,15.20
2009,08,11,08,53,15.10
2009,08,11,08,54,15.00
2009,08,11,08,55,15.00
2009,08,11,08,56,15.00
2009,08,11,08,57,15.00
2009,08,11,08,58,15.00
2009,08,11,08,59,15.00
2009,08,11,09,00,15.00
2009,08,11,09,01,15.00
2009,08,11,09,02,15.00
2009,08,11,09,03,15.00
2009,08,11,09,04,15.00
2009,08,11,09,05,15.00
2009,08,11,09,06,15.10
2009,08,11,09,07,15.20
2009,08,11,09,08,15.20
2009,08,11,09,09,15.30
2009,08,11,09,10,15.30
2009,08,11,09,11,15.30
2009,08,11,09,12,15.30
2009,08,11,09,13,15.30
2009,08,11,09,14,15.30
2009,08,11,09,15,15.40
2009,08,11,09,16,15.40
2009,08,11,09,17,15.40
2009,08,11,09,18,15.40
2009,08,11,09,19,15.50
2009,08,11,09,20,15.60
2009,08,11,09,21,15.70
2009,08,11,09,22,15.70
2009,08,11,09,23,15.80
2009,08,11,09,24,15.90
2009,08,11,09,25,16.00
2009,08,11,09,26,16.00
2009,08,11,09,27,16.10
2009,08,11,09,28,16.20
2009,08,11,09,29,16.30
2009,08,11,09,30,16.40
2009,08,11,09,31,16.40
2009,08,11,09,32,16.40
2009,08,11,09,33,16.50
2009,08,11,09,34,16.70
2009,08,11,09,35,16.70
2009,08,11,09,36,16.80
2009,08,11,09,37,16.90
2009,08,11,09,38,17.00
2009,08,11,09,39,17.10
2009,08,11,09,40,17.20
2009,08,11,09,41,17.30
2009,08,11,09,42,17.30
2009,08,11,09,43,17.40
2009,08,11,09,44,17.40
2009,08,11,09,45,17.50
2009,08,11,09,46,17.50
2009,08,11,09,47,17.50
2009,08,11,09,48,17.40
2009,08,11,09,49,17.30
2009,08,11,09,50,17.20
2009,08,11,09,51,17.20
2009,08,11,09,52,17.30
2009,08,11,09,53,17.40
2009,08,11,09,54,17.50
2009,08,11,09,55,17.60
2009,08,11,09,56,17.70
2009,08,11,09,57,17.80
2009,08,11,09,58,17.80
2009,08,11,09,59,17.80
2009,08,11,10,00,17.90
2009,08,11,10,01,17.90
2009,08,11,10,02,17.90
2009,08,11,10,03,17.90
2009,08,11,10,04,17.90
2009,08,11,10,05,17.90
2009,08,11,10,06,17.90
2009,08,11,10,07,17.90
2009,08,11,10,08,17.80
2009,08,11,10,09,17.70
2009,08,11,10,10,17.70
2009,08,11,10,11,17.60
2009,08,11,10,12,17.60
2009,08,11,10,13,17.60
2009,08,11,10,14,17.70
2009,08,11,10,15,17.80
2009,08,11,10,16,17.90
2009,08,11,10,17,18.00
2009,08,11,10,18,18.10
2009,08,11,10,19,18.20
2009,08,11,10,20,18.20
2009,08,11,10,21,18.30
2009,08,11,10,22,18.30
2009,08,11,10,23,18.30
2009,08,11,10,24,18.30
2009,08,11,10,25,18.20
2009,08,11,10,26,18.10
2009,08,11,10,27,18.10
2009,08,11,10,28,18.00
2009,08,11,10,29,18.00
2009,08,11,10,30,18.00
2009,08,11,10,31,18.10
2009,08,11,10,32,18.10
2009,08,11,10,33,18.20
2009,08,11,10,34,18.20
2009,08,11,10,35,18.20
2009,08,11,10,36,18.20
2009,08,11,10,37,18.20
2009,08,11,10,38,18.20
2009,08,11,10,39,18.20
2009,08,11,10,40,18.20
2009,08,11,10,41,18.20
2009,08,11,10,42,18.20
2009,08,11,10,43,18.30
2009,08,11,10,44,18.30
2009,08,11,10,45,18.40
2009,08,11,10,46,18.40
2009,08,11,10,47,18.50
2009,08,11,10,48,18.60
2009,08,11,10,49,18.60
2009,08,11,10,50,18.60
2009,08,11,10,51,18.50
2009,08,11,10,52,18.50
2009,08,11,10,53,18.50
2009,08,11,10,54,18.50
2009,08,11,10,55,18.40
2009,08,11,10,56,18.20
2009,08,11,10,57,18.10
2009,08,11,10,58,18.00
2009,08,11,10,59,17.90
2009,08,11,11,00,17.70
2009,08,11,11,01,17.60
2009,08,11,11,02,17.50
2009,08,11,11,03,17.50
2009,08,11,11,04,17.50
2009,08,11,11,05,17.40
2009,08,11,11,06,17.40
2009,08,11,11,07,17.40
2009,08,11,11,08,17.30
2009,08,11,11,09,17.30
2009,08,11,11,10,17.30
2009,08,11,11,11,17.50
2009,08,11,11,12,17.60
2009,08,11,11,13,17.60
2009,08,11,11,14,17.60
2009,08,11,11,15,17.70
2009,08,11,11,16,17.80
2009,08,11,11,17,17.90
2009,08,11,11,18,18.00
2009,08,11,11,19,18.10
2009,08,11,11,20,18.20
2009,08,11,11,21,18.30
2009,08,11,11,22,18.20
2009,08,11,11,23,18.20
2009,08,11,11,24,18.20
2009,08,11,11,25,18.30
2009,08,11,11,26,18.20
2009,08,11,11,27,18.20
2009,08,11,11,28,18.20
2009,08,11,11,29,18.20
2009,08,11,11,30,18.20
2009,08,11,11,31,18.10
2009,08,11,11,32,18.10
2009,08,11,11,33,18.10
2009,08,11,11,34,18.10
2009,08,11,11,35,18.10
2009,08,11,11,36,18.20
2009,08,11,11,37,18.20
2009,08,11,11,38,18.30
2009,08,11,11,39,18.30
2009,08,11,11,40,18.50
2009,08,11,11,41,18.50
2009,08,11,11,42,18.60
2009,08,11,11,43,18.70
2009,08,11,11,44,18.70
2009,08,11,11,45,18.80
2009,08,11,11,46,18.90
2009,08,11,11,47,18.80
2009,08,11,11,48,18.90
2009,08,11,11,49,18.80
2009,08,11,11,50,18.80
2009,08,11,11,51,18.60
2009,08,11,11,52,18.50
2009,08,11,11,53,18.40
2009,08,11,11,54,18.30
2009,08,11,11,55,18.10
2009,08,11,11,56,17.90
2009,08,11,11,57,17.80
2009,08,11,11,58,17.70
2009,08,11,11,59,17.70
2009,08,11,12,00,17.70
2009,08,11,12,01,17.70
2009,08,11,12,02,17.70
2009,08,11,12,03,17.80
2009,08,11,12,04,17.80
2009,08,11,12,05,17.80
2009,08,11,12,06,17.70
2009,08,11,12,07,17.60
2009,08,11,12,08,17.60
2009,08,11,12,09,17.60
2009,08,11,12,10,17.60
2009,08,11,12,11,17.50
2009,08,11,12,12,17.40
2009,08,11,12,13,17.40
2009,08,11,12,14,17.40
2009,08,11,12,15,17.40
2009,08,11,12,16,17.40
2009,08,11,12,17,17.30
2009,08,11,12,18,17.30
2009,08,11,12,19,17.30
2009,08,11,12,20,17.30
2009,08,11,12,21,17.20
2009,08,11,12,22,17.20
2009,08,11,12,23,17.20
2009,08,11,12,24,17.10
2009,08,11,12,25,17.10
2009,08,11,12,26,17.10
2009,08,11,12,27,17.10
2009,08,11,12,28,17.20
2009,08,11,12,29,17.20
2009,08,11,12,30,17.20
2009,08,11,12,31,17.30
2009,08,11,12,32,17.40
2009,08,11,12,33,17.40
2009,08,11,12,34,17.50
2009,08,11,12,35,17.50
2009,08,11,12,36,17.60
2009,08,11,12,37,17.60
2009,08,11,12,38,17.70
2009,08,11,12,39,17.80
2009,08,11,12,40,17.70
2009,08,11,12,41,17.70
2009,08,11,12,42,17.70
2009,08,11,12,43,17.80
2009,08,11,12,44,18.00
2009,08,11,12,45,18.00
2009,08,11,12,46,18.10
2009,08,11,12,47,18.20
2009,08,11,12,48,18.20
2009,08,11,12,49,18.20
2009,08,11,12,50,18.30
2009,08,11,12,51,18.30
2009,08,11,12,52,18.20
2009,08,11,12,53,18.20
2009,08,11,12,54,18.10
2009,08,11,12,55,18.00
2009,08,11,12,56,17.90
2009,08,11,12,57,17.80
2009,08,11,12,58,17.90
2009,08,11,12,59,18.00
2009,08,11,13,00,18.00
2009,08,11,13,01,18.10
2009,08,11,13,02,18.20
2009,08,11,13,03,18.30
2009,08,11,13,04,18.40
2009,08,11,13,05,18.60
2009,08,11,13,06,18.70
2009,08,11,13,07,18.70
2009,08,11,13,08,18.80
2009,08,11,13,09,18.80
2009,08,11,13,10,18.90
2009,08,11,13,11,18.90
2009,08,11,13,12,19.00
2009,08,11,13,13,19.10
2009,08,11,13,14,19.20
2009,08,11,13,15,19.20
2009,08,11,13,16,19.30
2009,08,11,13,17,19.30
2009,08,11,13,18,19.30
2009,08,11,13,19,19.40
2009,08,11,13,20,19.40
2009,08,11,13,21,19.50
2009,08,11,13,22,19.60
2009,08,11,13,23,19.60
2009,08,11,13,24,19.50
2009,08,11,13,25,19.40
2009,08,11,13,26,19.30
2009,08,11,13,27,19.20
2009,08,11,13,28,19.10
2009,08,11,13,29,19.00
2009,08,11,13,30,19.00
2009,08,11,13,31,19.00
2009,08,11,13,32,18.90
2009,08,11,13,33,18.90
2009,08,11,13,34,18.90
2009,08,11,13,35,18.90
2009,08,11,13,36,19.00
2009,08,11,13,37,19.00
2009,08,11,13,38,19.10
2009,08,11,13,39,19.10
2009,08,11,13,40,19.10
2009,08,11,13,41,19.20
2009,08,11,13,42,19.20
2009,08,11,13,43,19.20
2009,08,11,13,44,19.30
2009,08,11,13,45,19.30
2009,08,11,13,46,19.20
2009,08,11,13,47,19.20
2009,08,11,13,48,19.30
2009,08,11,13,49,19.30
2009,08,11,13,50,19.30
2009,08,11,13,51,19.30
2009,08,11,13,52,19.30
2009,08,11,13,53,19.30
2009,08,11,13,54,19.30
2009,08,11,13,55,19.30
2009,08,11,13,56,19.20
2009,08,11,13,57,19.20
2009,08,11,13,58,19.20
2009,08,11,13,59,19.20
2009,08,11,14,00,19.20
2009,08,11,14,01,19.10
2009,08,11,14,02,19.10
2009,08,11,14,03,19.20
2009,08,11,14,04,19.20
2009,08,11,14,05,19.20
2009,08,11,14,06,19.20
2009,08,11,14,07,19.10
2009,08,11,14,08,19.10
2009,08,11,14,09,19.10
2009,08,11,14,10,19.10
2009,08,11,14,11,19.00
2009,08,11,14,12,19.00
2009,08,11,14,13,19.00
2009,08,11,14,14,19.00
2009,08,11,14,15,19.00
2009,08,11,14,16,19.10
2009,08,11,14,17,19.10
2009,08,11,14,18,19.10
2009,08,11,14,19,19.20
2009,08,11,14,20,19.20
2009,08,11,14,21,19.20
2009,08,11,14,22,19.20
2009,08,11,14,23,19.20
2009,08,11,14,24,19.20
2009,08,11,14,25,19.20
2009,08,11,14,26,19.20
2009,08,11,14,27,19.20
2009,08,11,14,28,19.10
2009,08,11,14,29,19.10
2009,08,11,14,30,19.10
2009,08,11,14,31,19.10
2009,08,11,14,32,19.10
2009,08,11,14,33,19.10
2009,08,11,14,34,19.10
2009,08,11,14,35,19.20
2009,08,11,14,36,19.20
2009,08,11,14,37,19.20
2009,08,11,14,38,19.20
2009,08,11,14,39,19.20
2009,08,11,14,40,19.20
2009,08,11,14,41,19.20
2009,08,11,14,42,19.20
2009,08,11,14,43,19.20
2009,08,11,14,44,19.20
2009,08,11,14,45,19.20
2009,08,11,14,46,19.30
2009,08,11,14,47,19.30
2009,08,11,14,48,19.30
2009,08,11,14,49,19.30
2009,08,11,14,50,19.40
2009,08,11,14,51,19.40
2009,08,11,14,52,19.40
2009,08,11,14,53,19.40
2009,08,11,14,54,19.40
2009,08,11,14,55,19.40
2009,08,11,14,56,19.40
2009,08,11,14,57,19.40
2009,08,11,14,58,19.40
2009,08,11,14,59,19.30
2009,08,11,15,00,19.30
2009,08,11,15,01,19.30
2009,08,11,15,02,19.30
2009,08,11,15,03,19.30
2009,08,11,15,04,19.30
2009,08,11,15,05,19.30
2009,08,11,15,06,19.30
2009,08,11,15,07,19.20
2009,08,11,15,08,19.20
2009,08,11,15,09,19.20
2009,08,11,15,10,19.20
2009,08,11,15,11,19.20
2009,08,11,15,12,19.20
2009,08,11,15,13,19.20
2009,08,11,15,14,19.20
2009,08,11,15,15,19.20
2009,08,11,15,16,19.20
2009,08,11,15,17,19.20
2009,08,11,15,18,19.20
2009,08,11,15,19,19.30
2009,08,11,15,20,19.30
2009,08,11,15,21,19.30
2009,08,11,15,22,19.30
2009,08,11,15,23,19.30
2009,08,11,15,24,19.30
2009,08,11,15,25,19.30
2009,08,11,15,26,19.30
2009,08,11,15,27,19.40
2009,08,11,15,28,19.50
2009,08,11,15,29,19.50
2009,08,11,15,30,19.50
2009,08,11,15,31,19.60
2009,08,11,15,32,19.60
2009,08,11,15,33,19.70
2009,08,11,15,34,19.80
2009,08,11,15,35,19.90
2009,08,11,15,36,20.00
2009,08,11,15,37,20.10
2009,08,11,15,38,20.10
2009,08,11,15,39,20.20
2009,08,11,15,40,20.20
2009,08,11,15,41,20.20
2009,08,11,15,42,20.20
2009,08,11,15,43,20.20
2009,08,11,15,44,20.20
2009,08,11,15,45,20.20
2009,08,11,15,46,20.20
2009,08,11,15,47,20.20
2009,08,11,15,48,20.20
2009,08,11,15,49,20.20
2009,08,11,15,50,20.20
2009,08,11,15,51,20.20
2009,08,11,15,52,20.20
2009,08,11,15,53,20.20
2009,08,11,15,54,20.20
2009,08,11,15,55,20.20
2009,08,11,15,56,20.20
2009,08,11,15,57,20.30
2009,08,11,15,58,20.30
2009,08,11,15,59,20.40
2009,08,11,16,00,20.30
2009,08,11,16,01,20.30
2009,08,11,16,02,20.20
2009,08,11,16,03,20.20
2009,08,11,16,04,20.10
2009,08,11,16,05,20.00
2009,08,11,16,06,20.00
2009,08,11,16,07,20.00
2009,08,11,16,08,19.90
2009,08,11,16,09,19.90
2009,08,11,16,10,19.80
2009,08,11,16,11,19.80
2009,08,11,16,12,19.80
2009,08,11,16,13,19.90
2009,08,11,16,14,19.80
2009,08,11,16,15,19.80
2009,08,11,16,16,19.80
2009,08,11,16,17,19.80
2009,08,11,16,18,19.80
2009,08,11,16,19,19.80
2009,08,11,16,20,19.80
2009,08,11,16,21,19.80
2009,08,11,16,22,19.70
2009,08,11,16,23,19.70
2009,08,11,16,24,19.70
2009,08,11,16,25,19.70
2009,08,11,16,26,19.70
2009,08,11,16,27,19.60
2009,08,11,16,28,19.60
2009,08,11,16,29,19.60
2009,08,11,16,30,19.60
2009,08,11,16,31,19.50
2009,08,11,16,32,19.50
2009,08,11,16,33,19.50
2009,08,11,16,34,19.50
2009,08,11,16,35,19.40
2009,08,11,16,36,19.40
2009,08,11,16,37,19.30
2009,08,11,16,38,19.20
2009,08,11,16,39,19.00
2009,08,11,16,40,18.70
2009,08,11,16,41,18.40
2009,08,11,16,42,18.20
2009,08,11,16,43,18.00
2009,08,11,16,44,17.80
2009,08,11,16,45,17.60
2009,08,11,16,46,17.30
2009,08,11,16,47,17.20
2009,08,11,16,48,17.00
2009,08,11,16,49,16.80
2009,08,11,16,50,16.60
2009,08,11,16,51,16.40
2009,08,11,16,52,16.30
2009,08,11,16,53,16.20
2009,08,11,16,54,16.10
2009,08,11,16,55,16.10
2009,08,11,16,56,16.00
2009,08,11,16,57,16.00
2009,08,11,16,58,15.90
2009,08,11,16,59,15.80
2009,08,11,17,00,15.80
2009,08,11,17,01,15.70
2009,08,11,17,02,15.70
2009,08,11,17,03,15.70
2009,08,11,17,04,15.60
2009,08,11,17,05,15.60
2009,08,11,17,06,15.60
2009,08,11,17,07,15.50
2009,08,11,17,08,15.60
2009,08,11,17,09,15.50
2009,08,11,17,10,15.50
2009,08,11,17,11,15.50
2009,08,11,17,12,15.40
2009,08,11,17,13,15.40
2009,08,11,17,14,15.30
2009,08,11,17,15,15.30
2009,08,11,17,16,15.30
2009,08,11,17,17,15.40
2009,08,11,17,18,15.40
2009,08,11,17,19,15.50
2009,08,11,17,20,15.40
2009,08,11,17,21,15.40
2009,08,11,17,22,15.40
2009,08,11,17,23,15.50
2009,08,11,17,24,15.50
2009,08,11,17,25,15.40